Regional Weather Roundup
Issued by NWS Charleston, SC

Current Version | Previous Version | Text Only | Print | Product List | Glossary Off
Versions: 1 2 3 4 5 6 7 8 9 10 11 12 13 14 15 16 17 18 19 20 21 22 23 24 25 26 27 28 29 30 31 32 33 34 35 36 37 38 39 40 41 42 43 44 45 46 47 48 49 50
590 ASUS42 KCHS 060028 RWRCHS REGIONAL WEATHER ROUNDUP NATIONAL WEATHER SERVICE CHARLESTON SC 800 PM EDT THU MAY 05 2016 NOTE: "FAIR" INDICATES FEW OR NO CLOUDS BELOW 12,000 FEET WITH NO SIGNIFICANT WEATHER AND/OR OBSTRUCTIONS TO VISIBILITY. NOT ALL STATIONS ARE QUALITY CONTROLLED. USE DATA WITH CAUTION... ESPECIALLY DEWPOINT OBSERVATIONS. SCZ027-030-031-034>040-042>050-060100- ...SOUTHEAST SOUTH CAROLINA... CITY SKY/WX TMP DP RH WIND PRES REMARKS N CHARLESTON PTCLDY 63 39 41 NW14G22 29.69R 6HR MIN TEMP: 63; 6HR MAX TEMP: 74; WATERFRONT PRK N/A 66 44 45 NW10 29.65R MOUNT PLEASANT FAIR 63 41 45 W10 29.69R JOHNS ISLAND FAIR 63 43 48 W8G18 29.71R PINOPOLIS N/A 66 45 45 W22 29.60R MONCKS CORNER FAIR 57 34 41 W5 29.69R SUMMERVILLE FAIR 59 43 55 W5 29.71R BEAUFORT MCAS PTCLDY 65 39 38 N9 29.71R 6HR MIN TEMP: 65; 6HR MAX TEMP: 73; BEAUFORT ARPT MOCLDY 66 36 32 N10G23 29.71R HILTON HEAD IS CLEAR 66 39 37 NW5 29.73R WALTERBORO PTCLDY 61 41 48 W13G24 29.73R ALLENDALE CLOUDY 57 45 62 CALM 29.73S ...SOUTHERN MIDLANDS AND PEE DEE... CITY SKY/WX TMP DP RH WIND PRES REMARKS GEORGETOWN FAIR 54 46 76 CALM 29.69R KINGSTREE CLOUDY 55 46 71 S3 29.67S ORANGEBURG MOCLDY 60 42 51 W18G26 29.71R 6HR MIN TEMP: 59; 6HR MAX TEMP: 70; 6HR PCP: TRACE; BARNWELL FAIR 59 45 58 W6 29.74R AIKEN FAIR 54 41 62 W8 29.75S MANNING FAIR 59 43 55 CALM 29.69R COLUMBIA PTCLDY 63 38 39 W9 29.68R 6HR MIN TEMP: 57; 6HR MAX TEMP: 69; 6HR PCP: 0.02; SUMTER CLEAR 60 42 50 W6 29.65R 6HR MIN TEMP: 60; 6HR MAX TEMP: 68; 6HR PCP: TRACE; FLORENCE MOCLDY 55 51 86 W5 29.67R 6HR MIN TEMP: 53; 6HR MAX TEMP: 68; 6HR PCP: 0.26; MYRTLE BEACH MOCLDY 59 43 55 NW10 29.67R N MYRTLE BEACH PTCLDY 58 52 80 CALM 29.65R 6HR MIN TEMP: 55; 6HR MAX TEMP: 71; 6HR PCP: 0.13; $$ GAZ063-065-086>088-099>101-113>116-118-119-134>141-150-060100- ...SOUTHEAST GEORGIA... CITY SKY/WX TMP DP RH WIND PRES REMARKS SAVANNAH ARPT MOCLDY 66 36 32 NW9 29.72R 6HR MIN TEMP: 66; 6HR MAX TEMP: 74; HUNTER AAF PTCLDY 66 39 36 W10 29.70R 6HR MIN TEMP: 66; 6HR MAX TEMP: 73; FORT STEWART PTCLDY 66 37 33 W7G17 29.71R 6HR MIN TEMP: 66; 6HR MAX TEMP: 73; STATESBORO CLOUDY 60 49 67 NW13G18 29.77R SYLVANIA PTCLDY 59 46 60 NW12 29.76S CLAXTON MOCLDY 61 46 58 NW9G18 29.77R ...CSRA...CENTRAL AND FAR SOUTHEAST GEORGIA... CITY SKY/WX TMP DP RH WIND PRES REMARKS THOMSON CLEAR 54 51 88 W3 29.79R AUGUSTA-BUSH MOCLDY 58 41 53 W17 29.72S 6HR MIN TEMP: 56; 6HR MAX TEMP: 70; 6HR PCP: TRACE; AUGUSTA-DANIEL CLEAR 58 41 53 W10G17 29.73S SWAINSBORO CLOUDY 54 46 76 NW7 29.79S VIDALIA LGT RAIN 57 45 62 N9G23 29.77R EASTMAN CLOUDY 58 46 64 N7G20 29.82R HAZLEHURST FAIR 66 38 34 NW5 29.75R ALMA CLEAR 67 37 33 NW9 29.75R 6HR MIN TEMP: 67; 6HR MAX TEMP: 73; WAYCROSS CLEAR 63 41 43 NW5 29.76R JESUP FAIR 66 43 42 NW5 29.75R BAXLEY FAIR 64 41 42 W3 29.75R BRUNSWICK CLEAR 72 41 33 W6 29.77R SAINT SIMONS PTCLDY 68 37 32 NW9G18 29.75R 6HR MIN TEMP: 68; 6HR MAX TEMP: 73; $$ SCZ027-028-034-036>038-045-046-048>050-GAZ119-141-060100- ...LAKE AND SUPPLEMENTAL COASTAL OBSERVATIONS... STATION/POSITION TIME TEMP WIND PRES WAVE SWELL AIR SEA DIR/SP/G HT/PER HT/PER/DIR (UTC) (F) (DEG/KT/KT) (MB) (FT/S) (FT/S/D) WINYAH BAY 2300 61 340/ 9 1003.0 LAKE MURRAY 2300 63 290/ 7/ 14 1004.4R ACE BASIN NERRS 2300 68 320/ 4 1005.0R FORT PULASKI 0000 72 310/ 12/ 14 1006.5R SAPELO ISLAND 0000 68 290/ 12 1007.0R $$ ANZ835-935-AMZ111-154-330-350-352-354-370-450-454-472-060100- ...C-MAN AND BUOY OBSERVATIONS... STATION/POSITION TIME TEMP WIND PRES WAVE SWELL AIR SEA DIR/SP/G HT/PER HT/PER/DIR (UTC) (F) (DEG/KT/KT) (MB) (FT/S) (FT/S/D) BUOY 41004 2350 68 74 310/ 19/ 23 1003.8R 5/ 7 BUOY 41008 NOT AVBL FOLLY BEACH CMAN 0000 65 300/ 11/ 18 1005.5R CAPERS NEARSHORE 0008 66 70 320/ 16/ 21 1004.3R FRIPP NEARSHORE 0008 68 69 310/ 19/ 25 1004.8R STATION/POSITION TIME TEMP WIND PRES WAVE SWELL AIR SEA DIR/SP/G HT/PER HT/PER/DIR (UTC) (F) (DEG/KT/KT) (MB) (FT/S) (FT/S/D) 5E ST. MARYS GA 2321 71 N/A 3/ 4 FRYING PAN BUOY 0000 64 72 300/ 19/ 25 1003.0R BUOY 41025 2350 57 76 10/ 21/ 27 1000.3R 6/ 7 2/360/13 CAPE LOOKOUT NC 0000 57 10/ 12/ 15 1001.6R BUOY 41002 2350 71 74 260/ 25/ 31 1002.6R 10/ 8 BUOY 41010 2320 74 78 290/ 14/ 16 1006.4R ST AUGUSTINE FL 0000 71 71 320/ 9/ 11 1007.8R $$

USA.gov is the U.S. government's official web portal to all federal, state and local government web resources and services.